Regional Weather Roundup
Issued by NWS

Home | Current Version | Previous Version | Graphics & Text | Print | Product List | Glossary On
Versions: 1 2 3 4 5 6 7 8 9 10 11 12 13 14 15 16 17 18 19 20 21 22 23 24 25 26 27 28 29 30 31 32 33 34 35 36 37 38 39 40 41 42 43 44 45 46 47 48 49 50
000
ASUS43 KFSD 011410
RWRSD

WEATHER ROUNDUP FOR SOUTH DAKOTA
NATIONAL WEATHER SERVICE SIOUX FALLS SD
800 AM CST SUN FEB 01 2015

NOTE: "FAIR" INDICATES FEW OR NO CLOUDS BELOW 12,000 FEET WITH NO
SIGNIFICANT WEATHER AND/OR OBSTRUCTIONS TO VISIBILITY.


SDZ001>005-009-010-012>017-011500-
NORTHWEST AND NORTH CENTRAL SOUTH DAKOTA

CITY           SKY/WX    TMP DP  RH WIND       PRES   REMARKS
BUFFALO          N/A     -3  -8  79 NW10      30.28R WCI -20
FAITH            N/A     -3  -9  75 N12       30.37R WCI -21
MOBRIDGE       CLOUDY    -4 -11  72 N17       30.41R WCI -26
$$

SDZ012>016-024>037-041>051-057-063-072>074-011500-
SOUTHWEST AND SOUTH CENTRAL SOUTH DAKOTA

CITY           SKY/WX    TMP DP  RH WIND       PRES   REMARKS
RAPID CTY ARPT PTCLDY     0  -4  83 N21       30.31R WCI -22
PIERRE         LGT SNOW  -2  -7  79 N18       30.40R WCI -24
CUSTER         PTCLDY     3  -5  69 N10       30.06R WCI -12
ELLSWORTH AFB  MOCLDY     0  -4  85 N13       30.31  WCI -18
PHILIP         LGT SNOW   1  -5  75 N14       30.39R WCI -17
PINE RIDGE     CLOUDY     4  -2  76 N8        30.27R WCI  -9
WINNER         LGT SNOW   2  -3  80 N23       30.31R WCI -21
$$

SDZ004>011-016>023-039-040-011500-
NORTHEAST SOUTH DAKOTA

CITY           SKY/WX    TMP DP  RH WIND       PRES   REMARKS
ABERDEEN       FLURRIES  -1  -9  68 N20G29    30.41R WCI -23
WATERTOWN      CLOUDY    -2  -7  79 N20       30.26R WCI -24
SISSETON         N/A     -4 -10  75 N23       30.40R WCI -29
$$

SDZ017-020-022-023-036>040-048>070-011500-
SOUTHEAST SOUTH DAKOTA

CITY           SKY/WX    TMP DP  RH WIND       PRES   REMARKS
SIOUX FALLS    SNOW       7   3  84 N24G31    30.16R VSB 1/2 WCI -14
HURON          LGT SNOW   0  -6  76 N20G29    30.35R WCI -22
CHAMBERLAIN    LGT SNOW   1  -3  81 N16G24    30.32R WCI -19
MITCHELL       LGT SNOW   2  -3  80 N21       30.31R VSB 3/4 WCI -20
YANKTON          N/A    N/A N/A N/A N24G33    30.19R VSB 3/4
$$

ABBREVIATIONS USED IN REMARKS
   TC - TEMPERATURE IN CELSIUS
  WCI - WIND CHILL INDEX
   HX - HEAT INDEX
  VSB - VISIBILITY



USA.gov is the U.S. government's official web portal to all federal, state and local government web resources and services.